Regional Weather Roundup
Issued by NWS

Home | Current Version | Previous Version | Text Only | Print | Product List | Glossary Off
Versions: 1 2 3 4 5 6 7 8 9 10 11 12 13 14 15 16 17 18 19 20 21 22 23 24 25 26 27

000
ASUS45 KCYS 052010
RWRWY

WYOMING REGIONAL WEATHER ROUNDUP
NATIONAL WEATHER SERVICE CHEYENNE WY
100 PM MST MON DEC 05 2016

NOTE:  "FAIR" INDICATES FEW OR NO CLOUDS BELOW 12,000 FEET
WITH NO SIGNIFICANT WEATHER AND/OR OBSTRUCTIONS TO VISIBILITY.

WYZ001-052100-
YELLOWSTONE NATIONAL PARK

CITY           SKY/WX    TMP DP  RH WIND       PRES   REMARKS
LK YELLOWSTONE   N/A      6  -4  63 W7        29.79R WCI  -6
W YELLOWSTONE  NOT AVBL

$$
WYZ002>013-054>058-071-098>099-052100-
NORTHERN WYOMING

CITY           SKY/WX    TMP DP  RH WIND       PRES   REMARKS
JACKSON        PTSUNNY   16  -6  38 S10       29.87F WCI   3
CODY           FAIR      18  11  74 N9        29.85S WCI   7
GREYBULL       PTSUNNY   26   6  42 NW21      29.87R WCI  12
WORLAND        FAIR      23  12  62 N22G29    29.86R WCI   8
SHERIDAN       FAIR      20  15  81 NW15      29.86R WCI   6
BUFFALO        SNOW      19  12  74 N29G38    29.77S VSB 1/2 WCI   0
GILLETTE       FLURRIES  19  14  81 NW20G28   29.77R WCI   3
HULETT         FLURRIES  21  12  68 NW9G22    29.77R WCI  11
NEWCASTLE      FAIR      21  14  73 NW24G36   29.73S WCI   4

$$
WYZ014>020-022>026-101>103-052100-
CENTRAL WYOMING

CITY           SKY/WX    TMP DP  RH WIND       PRES   REMARKS
BIG PINEY      FAIR      17  -5  37 NW18      29.86S WCI   1
PINEDALE       FAIR      14  -4  44 MISG      29.84F
DUBOIS         CLOUDY    14   1  57 NW18G25   29.76S WCI  -3
LANDER         FAIR      24  -8  24 W20G28    29.79R WCI  10
RIVERTON       FAIR      26  -9  21 NW18G30   29.80R WCI  13
CASPER         CLOUDY    19  15  84 N3        29.79R FOG
DOUGLAS        LGT SNOW  20  15  81 NW17      29.79R VSB 1   WCI   5

$$
WYZ021-027>030-104>119-052100-
SOUTHERN WYOMING

CITY           SKY/WX    TMP DP  RH WIND       PRES   REMARKS
EVANSTON       FAIR      20 -11  25 W14       29.90F WCI   7
FORT BRIDGER   FAIR      22  -2  35 W13G18    29.93S WCI  10
ROCK SPRINGS   FAIR      19   2  47 W21       29.87S WCI   3
DIXON          CLOUDY    22   2  41 NW17G26   29.89R WCI   8
RAWLINS        FAIR      21  -2  36 W32G39    29.77S WCI   2
SARATOGA       CLOUDY    21   1  42 W14G24    29.80F WCI   8
LARAMIE        CLOUDY    22  -7  27 W31G41    29.71R WCI   4
CHEYENNE       FAIR      29   0  28 W35G47    29.71R WCI  12
TORRINGTON     LGT SNOW  27  20  75 NW17G29   29.75R WCI  14
PINE BLUFFS    MOCLDY    34   1  25 NW48G61   29.64F WCI  17

$$




USA.gov is the U.S. government's official web portal to all federal, state and local government web resources and services.